Regional Weather Roundup
Issued by NWS New Orleans/Baton Rouge, LA

Home | Current Version | Previous Version | Text Only | Print | Product List | Glossary On
Versions: 1 2 3 4 5 6 7 8 9 10 11 12 13 14 15 16 17 18 19 20 21 22 23 24 25 26 27 28 29 30 31 32 33 34 35 36 37 38 39 40 41 42 43 44 45 46 47 48 49 50
322
ASUS44 KLIX 021813
RWRLIX
NEW ORLEANS REGIONAL WEATHER ROUNDUP
NATIONAL WEATHER SERVICE NEW ORLEANS LA
1200 PM CST FRI DEC 02 2016

NOTE: "FAIR" INDICATES FEW OR NO CLOUDS BELOW 12,000 FEET WITH NO
      SIGNIFICANT WEATHER AND/OR OBSTRUCTIONS TO VISIBILITY.
      SKY/WX - SKY CONDITION AND SIGNIFICANT WEATHER.
      TMP - AIR TEMPERATURE.     DP    - DEWPOINT TEMPERATURE.
      RH  - RELATIVE HUMIDITY.   PRES  - PRESSURE.
      HI  - HEAT INDEX.          WCI   - WIND CHILL INDEX.

*  THESE STATIONS ARE NOT NWS OR FAA STATIONS AND ARE NOT UNDER
   NWS QUALITY CONTROL.

LAZ038-040-048-061>063-065>067-069-021900-
SOUTHEAST LOUISIANA

CITY           SKY/WX    TMP DP  RH WIND       PRES   REMARKS
N.O. AUDUBON   NOT AVBL
N.O. INTL ARPT PTSUNNY   64  46  52 E20       30.19F
6HR MIN TEMP:  57; 6HR MAX TEMP:  64;

N.O. LAKEFRONT MOSUNNY   63  45  51 E17       30.20F
6HR MIN TEMP:  57; 6HR MAX TEMP:  63;

N.O. DOWNTOWN*   N/A     62  46  55 E8        30.20F
6HR MIN TEMP:  56; 6HR MAX TEMP:  62;

RESERVE*         N/A     66  45  45 E13G21    30.19F
6HR MIN TEMP:  50; 6HR MAX TEMP:  66;

SLIDELL        PTSUNNY   64  32  30 E10       30.20F
6HR MIN TEMP:  41; 6HR MAX TEMP:  64;

BATON ROUGE    MOSUNNY   65  32  29 E13       30.18F
6HR MIN TEMP:  44; 6HR MAX TEMP:  65;

BOOTHVILLE     CLOUDY    64  51  62 E14G22    30.18F
6HR MIN TEMP:  58; 6HR MAX TEMP:  64;

BELLE CHASSE   PTSUNNY   66  45  46 E16G24    30.18F
6HR MIN TEMP:  51; 6HR MAX TEMP:  66;

BOGALUSA*      CLOUDY    66  29  24 E12       30.22F
6HR MIN TEMP:  42; 6HR MAX TEMP:  66;

GALLIANO*      CLOUDY    68  46  45 E9G18     30.18F
6HR MIN TEMP:  57; 6HR MAX TEMP:  68;

NEW ROADS*       N/A     62  32  33 E8        30.18F
6HR MIN TEMP:  46; 6HR MAX TEMP:  63;

GONZALES*        N/A     63  40  43 NE10G20   30.18F
6HR MIN TEMP:  47; 6HR MAX TEMP:  63;

HAMMOND*       MOSUNNY   66  28  24 E8        30.21F
HOUMA*         PTSUNNY   68  48  49 E16       30.17F
PORT FOURCHON* MOCLDY    68  54  60 E15G22    30.16F

$$

MSZ070-080>082-021900-
SOUTHERN MISSISSIPPI

CITY           SKY/WX    TMP DP  RH WIND       PRES   REMARKS
MCCOMB         MOSUNNY   61  25  25 E13G20    30.20F
6HR MIN TEMP:  45; 6HR MAX TEMP:  62;

GULFPORT       CLOUDY    63  32  31 E10       30.21F
6HR MIN TEMP:  45; 6HR MAX TEMP:  63;

BILOXI         CLOUDY    63  32  30 NE12      30.21F
6HR MIN TEMP:  45; 6HR MAX TEMP:  65;

PASCAGOULA     MOSUNNY   65  30  27 N7        30.22F
6HR MIN TEMP:  37; 6HR MAX TEMP:  65;

STENNIS ARPT*  PTSUNNY   61  27  27 E9        30.19F

$$

COASTAL OBSERVATIONS
LAKE AND NEARSHORE STATIONS

STATION/POSITION TIME  TEMP    WIND        PRES    WAVE
                       AIR SEA DIR/SP/G            HT/PER
                 (UTC) (F)     (DEG/KT/KT) (MB)    (FT/S)
PASCAGOULA       1748   63      70/ 12/ 15 1022.9
WAVELAND YACHT   1742   60 62  100/  9/ 10 1023.1
GRAND ISLE       1748   66 65   90/ 12/ 16 1021.6
SOUTHWEST PASS   1748           80/ 20/ 24   N/A
NEW CANAL        1748   61 63   80/ 13/ 18 1021.6
SHELL BEACH      1748   61 65   70/ 17/ 21 1022.4

OFFSHORE STATIONS

STATION/POSITION TIME  TEMP    WIND        PRES    WAVE
                       AIR SEA DIR/SP/G            HT/PER
                 (UTC) (F)     (DEG/KT/KT) (MB)    (FT/S)
64 S DAUPHIN ISL 1750   67 76   80/ 16/ 21 1021.6    5/ 5

$$





USA.gov is the U.S. government's official web portal to all federal, state and local government web resources and services.